www.pogodaiklimat.ru

Погода и климат >> Архив погоды >> Россия >> Хабаровский край >> Солекуль


АРХИВ ПОГОДЫ в Солекуль

Время (UTC), дата Ветер
(напр.,м/с)
 
Видим.   Явления Облачность Т
(С)
Тd
(С)
f
(%)
Тe
(С)
Тes
(С)
Комфортность P
(гПа)
Po
(гПа)
Тmin
(С)
Tmax
(С)
R
(мм)
R24
(мм)
S
(см)
15 9.07 В 3 500 м туман ?/? +14.7 +13.9 95 +14 +14 1011.8 909.7
18 9.07 ЮВ 4 500 м туман ?/? +13.5 +12.7 95 +12 +12 1011.9 909.4
21 9.07 ЮВ 3 500 м туман {дождь} туман ?/? +13.0 +12.1 94 +12 +12 1012.7 909.8 +12.8 0.7
00 10.07 Ю 1 500 м туман {дождь} туман ?/? +14.5 +13.7 95 +15 +15 1013.0 910.7
03 10.07 З 1 20 км {туман} 10/4 600 м
[Cu hum Ci]
+21.9 +17.9 78 +27 +36 душно 1009.6 910.2
06 10.07 СЗ 1 20 км {туман} 10/5 600 м
[Cu med, cong Cs]
+21.9 +17.9 78 +27 +31 душно 1010.0 909.5
09 10.07 СЗ 3 50 км {гроза} 10/3 600 м
[Cb cap Ci]
+22.1 +16.8 72 +26 +27 душно 1008.5 909.3 +23.9
12 10.07 СЗ 5 50 км {гроза} 8/3 600 м
[Sc Ci fib]
+19.3 +16.5 84 +21 +21 комфорт 1010.8 910.1
15 10.07 З 2 50 км 6/3 600 м
[Sc Ci fib]
+17.7 +16.9 95 +18 +18 1010.6 909.7
21 10.07 ЮЗ 3 20 км 10/8 600 м
[Sc Ci fib]
+17.2 +16.4 95 +17 +17 1010.1 909.1 +16.9
00 11.07 З 3 10 км гроза, ливневой дождь 10/9 300 м
[Cb cap Ci fib]
+18.8 +18.0 95 +20 +21 1009.4 909.1
06 11.07 СЗ 2 20 км {гроза, ливн. осадки} 10/8 600 м
[Cb cap Ci fib]
+22.9 +18.2 75 +29 +30 очень
душно
1004.6 906.0
09 11.07 З 2 20 км гроза, ливневой дождь 10/8 600 м
[Cb cap Ci fib]
+20.5 +15.9 75 +24 +24 комфорт 1005.1 905.7 +23.7 12
12 11.07 ЮВ 2 20 км {гроза} 10/6 600 м
[Sc Ci fib]
+17.2 +16.4 95 +18 +18 1006.5 905.9
15 11.07 Ю 2 20 км ясно +16.1 +15.3 95 +16 +16 1005.9 904.9
18 11.07 З 1 20 км ясно +14.7 +13.9 95 +15 +15 1005.8 904.3
21 11.07 Ю 1 500 м туман ?/? +14.9 +14.1 95 +15 +15 1005.6 904.2 +14.3
00 12.07 С 1 500 м туман ?/? +17.3 +16.5 95 +18 +18 1004.2 903.9
03 12.07 С 1 50 км {туман} 10/5 600 м
[Cu med, cong Ci]
+20.1 +16.9 82 +24 +32 комфорт 1002.1 902.8
06 12.07 С 1 20 км {туман} 10/8 600 м
[Cb cap Ci ing]
+24.1 +14.8 56 +27 +29 жарко 999.5 901.7
09 12.07 В 5 10 км гроза, ливневой дождь 10/10 300 м
[Cb cap]
+15.5 +10.7 73 +14 +14 1003.6 902.5 +24.2 4
12 12.07 В 3 20 км {гроза, ливн. осадки} 9/9 600 м
[Cb cap]
+15.0 +14.2 95 +14 +14 1003.8 902.6
15 12.07 В 5 20 км 6/6 600 м
[Cb cap]
+15.0 +14.2 95 +13 +13 1003.6 902.4
18 12.07 В 4 20 км 6/6 600 м
[Cb cap]
+15.1 +14.3 95 +14 +14 1003.4 902.3
21 12.07 В 4 500 м туман ?/? +14.7 +14.1 96 +13 +13 1004.6 902.8 +14.6 23
00 13.07 ЮВ 2 500 м туман ?/? +14.5 +13.7 95 +14 +14 1004.8 903.3 +14.5
03 13.07 В 3 10 км {туман} 10/10 300 м
[St]
+16.5 +15.7 95 +16 +16 1003.9 903.3
06 13.07 В 6 20 км гроза, ливневой дождь 10/10 600 м
[Cb cap]
+16.0 +15.2 95 +15 +15 1003.7 902.9
09 13.07 В 6 20 км {гроза} 10/10 600 м
[Cb cap]
+15.2 +14.4 95 +14 +14 1004.1 903.0 +18.7
12 13.07 В 6 20 км {гроза} 10/10 300 м
[St As op]
+13.2 +12.4 95 +11 +11 1006.0 903.9
00 14.07 В 2 20 км 10/10 600 м
[Sc]
+14.7 +13.8 94 +14 +14 1007.3 905.6
12 14.07 ЮВ 6
{10}
50 км 6/4 600 м
[Sc Ci fib]
+13.8 +12.4 91 +12 +12 1009.6 907.4
00 15.07 ЮВ 3 50 км 6/1 600 м
[Cu hum Ac trans]
+14.3 +12.7 90 +13 +19 1011.4 909.2
00 16.07 штиль 0 50 км {ливн. осадки} 6/6 600 м
[Cu med, cong]
+17.3 +15.5 89 +17 +24 1011.2 910.1

 

Местоположение метеостанции Солекуль (Хабаровский край, Россия): широта 49.17 долгота 138.00 высота над уровнем моря 911 м.

В архиве по умолчанию представлена погода в Солекуль за последнюю неделю. Архивные данные за месяц целиком и за предыдущие месяцы, начиная с января 2011 года, Вы можете получить, выбрав интересующий диапазон дат из раскрывающегося списка и нажав кнопку "Ввод!".


*Определитесь, кто Вы:
робот инопланетянин человек

Внимание! Время в таблицах - всемирное. Для получения местного времени необходимо прибавить поправку, которая равна 10 ч.

Смотрите также архив погоды в соседних городах и на ближайших метеорологических станциях:

Погода в Мопау (Хабаровский край, Россия) (66 км)
Погода в Тивяку (Хабаровский край, Россия) (97 км)
Погода в Троицком (Хабаровский край, Россия) (109 км)
Погода в Сегжеме (Хабаровский край, Россия) (134 км)
Погода в Тумнине (Хабаровский край, Россия) (154 км)
Погода в Амурске (Хабаровский край, Россия) (160 км)
Погода в Елабуге (Хабаровский край, Россия) (165 км)
Погода в Комсомольске-на-Амуре (Хабаровский край, Россия) (167 км)
Погода в Сукпае (Хабаровский край, Россия) (168 км)
Погода в Советской Гавани (Хабаровский край, Россия) (169 км)

Пояснения к столбцам:

Ветер - указаны скорость ветра в м/с - средняя за 10 мин, порывы в срок и между сроками (в фигурных скобках) и направление, откуда дует ветер: С - северный, СВ - северо-восточный, В - восточный, ЮВ - юго-восточный, Ю - южный, ЮЗ - юго-западный, З - западный, СЗ - северо-западный.
Видимость - горизонтальная дальность видимости в метрах или километрах. При видимости от 1 до 10 км при отсутствии осадков обычно наблюдается дымка, при ухудшении видимости до 1 км и менее - туман. В сухую погоду видимость может ухудшаться дымом, пылью или мглою.
Явления - указаны атмосферные явления, наблюдавшиеся в срок или в последний час перед сроком; фигурными скобками обозначены явления, наблюдавшиеся между сроками (за 1-3 часа до срока); квадратными скобками обозначены град или гололедные отложения с указанием их диаметра в мм.
Облачность - указаны через наклонную черту общая и нижняя облачность в баллах и высота нижней границы облаков в метрах; квадратными скобками обозначены формы облаков: Ci - перистые, Cs - перисто-слоистые, Cc - перисто-кучевые, Ac - высококучевые, As - высокослоистые, Sc - слоисто-кучевые, Ns - слоисто-дождевые, Cu - кучевые, Cb - кучево-дождевые. Подробнее классификацию облаков см. в Атласе облаков (PDF).
T - Температура воздуха - температура, измеренная на высоте 2 м над землей.
Td - Температура точки росы - температура, при понижении до которой содержащийся в воздухе водяной пар достигнет насыщения.
f - Относительная влажность воздуха - влажноcть воздуха, измеренная на высоте 2 м над землей.
Te - Эффективная температура - температура, которую ощущает одетый по сезону человек в тени. Характеристика душности погоды. При расчете учитывается влияние влажности воздуха и скорости ветра на теплоощущения человека.
Tes - Эффективная температура на солнце - температура, которую ощущает человек, с поправкой на солнечный нагрев. Характеристика знойности погоды. Зависит от высоты солнца над горизонтом, облачности и скорости ветра. Ночью, в пасмурную погоду, а также при ветре 12 м/с и более поправка равна нулю.
P - Атмосферное давление - приведенное к уровню моря атмосферное давление.
Po - Атмосферное давление - измеренное на уровне метеостанции атмосферное давление.
Tmin - Минимальная температура - минимум температуры воздуха на высоте 2 м над землей.
Tmax - Максимальная температура - максимум температуры воздуха на высоте 2 м над землей.
R - Количество осадков - Количество выпавших осадков за период времени, мм. При наведении курсора мыши на число - период времени, за который выпало указанное количество осадков.
R24 - Количество осадков - Количество выпавших осадков за 24 часа, мм.
S - Снежный покров - Высота снежного покрова, см. При наведении курсора мыши на число - состояние снежного покрова и степень покрытия местности в баллах.